Time,TemperatureF,DewpointF,PressureIn,WindDirection,WindDirectionDegrees,WindSpeedMPH,WindSpeedGustMPH,Humidity,HourlyPrecipIn,Conditions,Clouds,dailyrainin,SoftwareType,DateUTC
2013-03-28 00:00:00,40.0,28.4,29.98,NW,315,5.0,13.0,63,0.00,,,0.00,Weather View 32 v70,2013-03-28 04:00:00,
2013-03-28 00:05:00,40.0,28.4,29.98,NW,315,3.0,12.0,63,0.00,,,0.00,Weather View 32 v70,2013-03-28 04:05:00,
2013-03-28 00:10:00,40.0,28.8,29.98,NW,315,6.0,12.0,64,0.00,,,0.00,Weather View 32 v70,2013-03-28 04:10:00,
2013-03-28 00:15:00,40.0,28.8,29.98,NW,315,5.0,12.0,64,0.00,,,0.00,Weather View 32 v70,2013-03-28 04:15:00,
2013-03-28 00:20:00,40.0,28.8,29.98,NNW,337,6.0,12.0,64,0.00,,,0.00,Weather View 32 v70,2013-03-28 04:20:00,
2013-03-28 00:25:00,40.0,28.8,29.98,NNE,22,6.0,12.0,64,0.00,,,0.00,Weather View 32 v70,2013-03-28 04:25:00,
2013-03-28 00:30:00,40.0,29.2,29.98,WNW,292,5.0,12.0,65,0.00,,,0.00,Weather View 32 v70,2013-03-28 04:30:00,
2013-03-28 00:35:00,40.0,29.2,29.98,West,270,2.0,9.0,65,0.00,,,0.00,Weather View 32 v70,2013-03-28 04:35:00,
2013-03-28 00:40:00,39.0,28.2,29.98,WNW,292,7.0,10.0,65,0.00,,,0.00,Weather View 32 v70,2013-03-28 04:40:00,
2013-03-28 00:45:00,40.0,29.2,29.98,NW,315,7.0,10.0,65,0.00,,,0.00,Weather View 32 v70,2013-03-28 04:45:00,
2013-03-28 00:50:00,39.0,28.6,29.98,NW,315,5.0,10.0,66,0.00,,,0.00,Weather View 32 v70,2013-03-28 04:50:00,
2013-03-28 00:55:00,39.0,28.2,29.99,NW,315,4.0,10.0,65,0.00,,,0.00,Weather View 32 v70,2013-03-28 04:55:00,
2013-03-28 01:00:00,39.0,28.6,29.99,NW,315,6.0,10.0,66,0.00,,,0.00,Weather View 32 v70,2013-03-28 05:00:00,
2013-03-28 01:05:00,39.0,28.6,29.99,WNW,292,9.0,10.0,66,0.00,,,0.00,Weather View 32 v70,2013-03-28 05:05:00,
2013-03-28 01:10:00,39.0,28.6,29.99,NW,315,6.0,10.0,66,0.00,,,0.00,Weather View 32 v70,2013-03-28 05:10:00,
2013-03-28 01:15:00,40.0,29.5,29.98,NW,315,6.0,10.0,66,0.00,,,0.00,Weather View 32 v70,2013-03-28 05:15:00,
2013-03-28 01:20:00,39.0,28.6,29.98,NW,315,3.0,10.0,66,0.00,,,0.00,Weather View 32 v70,2013-03-28 05:20:00,
2013-03-28 01:25:00,40.0,29.5,29.98,NW,315,3.0,10.0,66,0.00,,,0.00,Weather View 32 v70,2013-03-28 05:25:00,
2013-03-28 01:30:00,40.0,29.5,29.98,NW,315,7.0,10.0,66,0.00,,,0.00,Weather View 32 v70,2013-03-28 05:30:00,
2013-03-28 01:35:00,40.0,29.2,29.98,NW,315,6.0,10.0,65,0.00,,,0.00,Weather View 32 v70,2013-03-28 05:35:00,
2013-03-28 01:40:00,40.0,29.5,29.98,NW,315,4.0,9.0,66,0.00,,,0.00,Weather View 32 v70,2013-03-28 05:40:00,
2013-03-28 01:45:00,40.0,29.2,29.98,WNW,292,2.0,9.0,65,0.00,,,0.00,Weather View 32 v70,2013-03-28 05:45:00,
2013-03-28 01:50:00,40.0,29.5,29.98,NW,315,6.0,9.0,66,0.00,,,0.00,Weather View 32 v70,2013-03-28 05:50:00,
2013-03-28 01:55:00,40.0,29.2,29.98,NW,315,2.0,9.0,65,0.00,,,0.00,Weather View 32 v70,2013-03-28 05:55:00,
2013-03-28 02:01:00,40.0,29.5,29.98,NW,315,7.0,10.0,66,0.00,,,0.00,Weather View 32 v70,2013-03-28 06:01:00,
2013-03-28 02:06:00,40.0,29.5,29.98,NW,315,6.0,10.0,66,0.00,,,0.00,Weather View 32 v70,2013-03-28 06:06:00,
2013-03-28 02:11:00,40.0,29.5,29.98,NW,315,8.0,11.0,66,0.00,,,0.00,Weather View 32 v70,2013-03-28 06:11:00,
2013-03-28 02:16:00,40.0,29.5,29.98,WNW,292,3.0,11.0,66,0.00,,,0.00,Weather View 32 v70,2013-03-28 06:16:00,
2013-03-28 02:21:00,40.0,29.9,29.98,NW,315,7.0,11.0,67,0.00,,,0.00,Weather View 32 v70,2013-03-28 06:21:00,
2013-03-28 02:26:00,40.0,29.9,29.98,WNW,292,7.0,11.0,67,0.00,,,0.00,Weather View 32 v70,2013-03-28 06:26:00,
2013-03-28 02:31:00,39.0,29.3,29.98,North,360,5.0,11.0,68,0.00,,,0.00,Weather View 32 v70,2013-03-28 06:31:00,
2013-03-28 02:36:00,39.0,29.3,29.98,WNW,292,5.0,11.0,68,0.00,,,0.00,Weather View 32 v70,2013-03-28 06:36:00,
2013-03-28 02:41:00,39.0,29.3,29.98,NW,315,7.0,11.0,68,0.00,,,0.00,Weather View 32 v70,2013-03-28 06:41:00,
2013-03-28 02:46:00,39.0,29.7,29.98,WNW,292,4.0,11.0,69,0.00,,,0.00,Weather View 32 v70,2013-03-28 06:46:00,
2013-03-28 02:51:00,39.0,30.0,29.98,West,270,5.0,11.0,70,0.00,,,0.00,Weather View 32 v70,2013-03-28 06:51:00,
2013-03-28 02:56:00,39.0,30.0,29.99,NNW,337,6.0,11.0,70,0.00,,,0.00,Weather View 32 v70,2013-03-28 06:56:00,
2013-03-28 03:01:00,39.0,30.0,29.99,WNW,292,7.0,11.0,70,0.00,,,0.00,Weather View 32 v70,2013-03-28 07:01:00,
2013-03-28 03:06:00,39.0,30.0,29.99,West,270,7.0,11.0,70,0.00,,,0.00,Weather View 32 v70,2013-03-28 07:06:00,
2013-03-28 03:11:00,39.0,30.0,29.99,NW,315,6.0,11.0,70,0.00,,,0.00,Weather View 32 v70,2013-03-28 07:11:00,
2013-03-28 03:16:00,39.0,30.0,29.99,NNW,337,7.0,11.0,70,0.00,,,0.00,Weather View 32 v70,2013-03-28 07:16:00,
2013-03-28 03:21:00,39.0,30.4,29.99,NNE,22,9.0,12.0,71,0.00,,,0.00,Weather View 32 v70,2013-03-28 07:21:00,
2013-03-28 03:26:00,38.0,29.4,29.99,NW,315,5.0,12.0,71,0.00,,,0.00,Weather View 32 v70,2013-03-28 07:26:00,
2013-03-28 03:31:00,38.0,29.4,29.99,NW,315,5.0,12.0,71,0.00,,,0.00,Weather View 32 v70,2013-03-28 07:31:00,
2013-03-28 03:36:00,38.0,30.1,29.99,West,270,6.0,12.0,73,0.00,,,0.00,Weather View 32 v70,2013-03-28 07:36:00,
2013-03-28 03:41:00,38.0,30.1,29.99,WNW,292,9.0,13.0,73,0.00,,,0.00,Weather View 32 v70,2013-03-28 07:41:00,
2013-03-28 03:46:00,38.0,30.1,29.99,NNW,337,7.0,13.0,73,0.00,,,0.00,Weather View 32 v70,2013-03-28 07:46:00,
2013-03-28 03:51:00,38.0,30.1,29.99,NE,45,2.0,13.0,73,0.00,,,0.00,Weather View 32 v70,2013-03-28 07:51:00,
2013-03-28 03:56:00,38.0,30.1,29.99,NW,315,6.0,13.0,73,0.00,,,0.00,Weather View 32 v70,2013-03-28 07:56:00,
2013-03-28 04:01:00,38.0,30.4,29.99,NE,45,6.0,13.0,74,0.00,,,0.00,Weather View 32 v70,2013-03-28 08:01:00,
2013-03-28 04:06:00,38.0,30.4,29.99,WNW,292,5.0,13.0,74,0.00,,,0.00,Weather View 32 v70,2013-03-28 08:06:00,
2013-03-28 04:11:00,38.0,30.8,29.99,West,270,5.0,13.0,75,0.00,,,0.00,Weather View 32 v70,2013-03-28 08:11:00,
2013-03-28 04:16:00,38.0,30.8,29.99,NNW,337,4.0,13.0,75,0.00,,,0.00,Weather View 32 v70,2013-03-28 08:16:00,
2013-03-28 04:21:00,38.0,30.4,29.99,SSW,202,2.0,13.0,74,0.00,,,0.00,Weather View 32 v70,2013-03-28 08:21:00,
2013-03-28 04:26:00,38.0,30.8,29.99,NW,315,4.0,13.0,75,0.00,,,0.00,Weather View 32 v70,2013-03-28 08:26:00,
2013-03-28 04:32:00,38.0,30.4,29.99,NW,315,6.0,13.0,74,0.00,,,0.00,Weather View 32 v70,2013-03-28 08:32:00,
2013-03-28 04:37:00,38.0,30.4,29.99,WNW,292,6.0,13.0,74,0.00,,,0.00,Weather View 32 v70,2013-03-28 08:37:00,
2013-03-28 04:42:00,38.0,30.4,29.99,NNW,337,4.0,13.0,74,0.00,,,0.00,Weather View 32 v70,2013-03-28 08:42:00,
2013-03-28 04:47:00,38.0,30.4,29.99,West,270,3.0,13.0,74,0.00,,,0.00,Weather View 32 v70,2013-03-28 08:47:00,
2013-03-28 04:52:00,38.0,30.4,29.99,NNW,337,6.0,13.0,74,0.00,,,0.00,Weather View 32 v70,2013-03-28 08:52:00,
2013-03-28 04:57:00,38.0,30.4,29.99,NNW,337,6.0,13.0,74,0.00,,,0.00,Weather View 32 v70,2013-03-28 08:57:00,
2013-03-28 05:02:00,38.0,30.4,29.99,WNW,292,5.0,13.0,74,0.00,,,0.00,Weather View 32 v70,2013-03-28 09:02:00,
2013-03-28 05:07:00,38.0,30.8,29.99,West,270,2.0,16.0,75,0.00,,,0.00,Weather View 32 v70,2013-03-28 09:07:00,
2013-03-28 05:12:00,38.0,30.4,29.99,NW,315,7.0,16.0,74,0.00,,,0.00,Weather View 32 v70,2013-03-28 09:12:00,
2013-03-28 05:17:00,38.0,30.4,29.99,NNW,337,3.0,16.0,74,0.00,,,0.00,Weather View 32 v70,2013-03-28 09:17:00,
2013-03-28 05:22:00,38.0,30.8,29.99,NW,315,4.0,16.0,75,0.00,,,0.00,Weather View 32 v70,2013-03-28 09:22:00,
2013-03-28 05:27:00,38.0,30.8,30.00,NW,315,7.0,16.0,75,0.00,,,0.00,Weather View 32 v70,2013-03-28 09:27:00,
2013-03-28 05:32:00,38.0,30.8,30.00,NW,315,3.0,16.0,75,0.00,,,0.00,Weather View 32 v70,2013-03-28 09:32:00,
2013-03-28 05:37:00,38.0,30.8,30.00,NW,315,5.0,16.0,75,0.00,,,0.00,Weather View 32 v70,2013-03-28 09:37:00,
2013-03-28 05:42:00,38.0,30.8,30.00,NW,315,6.0,16.0,75,0.00,,,0.00,Weather View 32 v70,2013-03-28 09:42:00,
2013-03-28 05:47:00,38.0,30.8,30.00,West,270,5.0,16.0,75,0.00,,,0.00,Weather View 32 v70,2013-03-28 09:47:00,
2013-03-28 05:52:00,38.0,30.8,30.00,NW,315,6.0,16.0,75,0.00,,,0.00,Weather View 32 v70,2013-03-28 09:52:00,
2013-03-28 05:57:00,38.0,30.8,30.00,NW,315,2.0,16.0,75,0.00,,,0.00,Weather View 32 v70,2013-03-28 09:57:00,
2013-03-28 06:02:00,38.0,30.8,30.00,NNW,337,2.0,16.0,75,0.00,,,0.00,Weather View 32 v70,2013-03-28 10:02:00,
2013-03-28 06:07:00,38.0,31.1,30.01,NW,315,4.0,10.0,76,0.00,,,0.00,Weather View 32 v70,2013-03-28 10:07:00,
2013-03-28 06:12:00,38.0,31.1,30.01,NW,315,5.0,11.0,76,0.00,,,0.00,Weather View 32 v70,2013-03-28 10:12:00,
2013-03-28 06:17:00,38.0,31.1,30.01,NW,315,3.0,11.0,76,0.00,,,0.00,Weather View 32 v70,2013-03-28 10:17:00,
2013-03-28 06:22:00,38.0,31.1,30.01,North,360,1.0,12.0,76,0.00,,,0.00,Weather View 32 v70,2013-03-28 10:22:00,
2013-03-28 06:27:00,38.0,31.1,30.01,North,360,6.0,12.0,76,0.00,,,0.00,Weather View 32 v70,2013-03-28 10:27:00,
2013-03-28 06:32:00,38.0,31.1,30.01,NNW,337,7.0,13.0,76,0.00,,,0.00,Weather View 32 v70,2013-03-28 10:32:00,
2013-03-28 06:37:00,38.0,31.1,30.01,WSW,247,3.0,13.0,76,0.00,,,0.00,Weather View 32 v70,2013-03-28 10:37:00,
2013-03-28 06:42:00,38.0,31.1,30.01,NNW,337,8.0,13.0,76,0.00,,,0.00,Weather View 32 v70,2013-03-28 10:42:00,
2013-03-28 06:47:00,38.0,31.4,30.01,NNW,337,6.0,13.0,77,0.00,,,0.00,Weather View 32 v70,2013-03-28 10:47:00,
2013-03-28 06:52:00,38.0,31.4,30.01,NW,315,7.0,13.0,77,0.00,,,0.00,Weather View 32 v70,2013-03-28 10:52:00,
2013-03-28 06:57:00,38.0,31.4,30.01,West,270,4.0,13.0,77,0.00,,,0.00,Weather View 32 v70,2013-03-28 10:57:00,
2013-03-28 07:02:00,38.0,31.4,30.01,WNW,292,6.0,13.0,77,0.00,,,0.00,Weather View 32 v70,2013-03-28 11:02:00,
2013-03-28 07:07:00,38.0,31.4,30.02,NNE,22,4.0,13.0,77,0.00,,,0.00,Weather View 32 v70,2013-03-28 11:07:00,
2013-03-28 07:13:00,38.0,31.7,30.02,NW,315,6.0,13.0,78,0.00,,,0.00,Weather View 32 v70,2013-03-28 11:13:00,
2013-03-28 07:18:00,38.0,31.7,30.03,NW,315,9.0,13.0,78,0.00,,,0.00,Weather View 32 v70,2013-03-28 11:18:00,
2013-03-28 07:23:00,38.0,31.7,30.03,North,360,6.0,14.0,78,0.00,,,0.00,Weather View 32 v70,2013-03-28 11:23:00,
2013-03-28 07:27:00,38.0,31.7,30.03,NNW,337,10.0,14.0,78,0.00,,,0.00,Weather View 32 v70,2013-03-28 11:27:00,
2013-03-28 07:33:00,38.0,32.1,30.03,NW,315,6.0,14.0,79,0.00,,,0.00,Weather View 32 v70,2013-03-28 11:33:00,
2013-03-28 07:40:00,38.0,32.1,30.03,North,360,2.0,14.0,79,0.00,,,0.00,Weather View 32 v70,2013-03-28 11:40:00,
2013-03-28 07:45:00,38.0,31.7,30.03,North,360,3.0,14.0,78,0.00,,,0.00,Weather View 32 v70,2013-03-28 11:45:00,
2013-03-28 07:50:00,38.0,31.7,30.03,NW,315,2.0,14.0,78,0.00,,,0.00,Weather View 32 v70,2013-03-28 11:50:00,
2013-03-28 07:55:00,38.0,31.7,30.03,NE,45,4.0,14.0,78,0.00,,,0.00,Weather View 32 v70,2013-03-28 11:55:00,
2013-03-28 08:00:00,39.0,32.7,30.03,WNW,292,2.0,14.0,78,0.00,,,0.00,Weather View 32 v70,2013-03-28 12:00:00,
2013-03-28 08:05:00,39.0,32.7,30.03,NNW,337,9.0,14.0,78,0.00,,,0.00,Weather View 32 v70,2013-03-28 12:05:00,
2013-03-28 08:10:00,39.0,32.7,30.03,NW,315,4.0,14.0,78,0.00,,,0.00,Weather View 32 v70,2013-03-28 12:10:00,
2013-03-28 08:15:00,39.0,33.0,30.03,NW,315,6.0,14.0,79,0.00,,,0.00,Weather View 32 v70,2013-03-28 12:15:00,
2013-03-28 08:20:00,39.0,33.3,30.04,NW,315,1.0,14.0,80,0.00,,,0.00,Weather View 32 v70,2013-03-28 12:20:00,
2013-03-28 08:25:00,39.0,33.3,30.04,WNW,292,6.0,13.0,80,0.00,,,0.00,Weather View 32 v70,2013-03-28 12:25:00,
2013-03-28 08:30:00,39.0,33.7,30.04,NNW,337,4.0,13.0,81,0.00,,,0.00,Weather View 32 v70,2013-03-28 12:30:00,
2013-03-28 08:35:00,39.0,34.3,30.04,NNE,22,2.0,13.0,83,0.00,,,0.00,Weather View 32 v70,2013-03-28 12:35:00,
2013-03-28 08:40:00,38.0,33.3,30.04,NW,315,5.0,13.0,83,0.00,,,0.00,Weather View 32 v70,2013-03-28 12:40:00,
2013-03-28 08:45:00,39.0,35.2,30.04,NE,45,5.0,13.0,86,0.00,,,0.00,Weather View 32 v70,2013-03-28 12:45:00,
2013-03-28 08:50:00,39.0,34.9,30.05,North,360,7.0,13.0,85,0.00,,,0.00,Weather View 32 v70,2013-03-28 12:50:00,
2013-03-28 08:55:00,39.0,34.6,30.05,NNW,337,7.0,13.0,84,0.00,,,0.00,Weather View 32 v70,2013-03-28 12:55:00,
2013-03-28 09:00:00,39.0,34.3,30.05,NNW,337,7.0,13.0,83,0.00,,,0.00,Weather View 32 v70,2013-03-28 13:00:00,
2013-03-28 09:05:00,39.0,34.3,30.05,WNW,292,5.0,13.0,83,0.00,,,0.00,Weather View 32 v70,2013-03-28 13:05:00,
2013-03-28 09:10:00,39.0,33.7,30.05,NW,315,6.0,13.0,81,0.00,,,0.00,Weather View 32 v70,2013-03-28 13:10:00,
2013-03-28 09:15:00,39.0,33.3,30.05,West,270,2.0,13.0,80,0.00,,,0.00,Weather View 32 v70,2013-03-28 13:15:00,
2013-03-28 09:20:00,39.0,33.3,30.05,NNW,337,5.0,12.0,80,0.00,,,0.00,Weather View 32 v70,2013-03-28 13:20:00,
2013-03-28 09:25:00,39.0,33.7,30.05,North,360,4.0,11.0,81,0.00,,,0.00,Weather View 32 v70,2013-03-28 13:25:00,
2013-03-28 09:30:00,39.0,33.7,30.05,WNW,292,4.0,11.0,81,0.00,,,0.00,Weather View 32 v70,2013-03-28 13:30:00,
2013-03-28 09:35:00,39.0,33.7,30.05,NNW,337,1.0,11.0,81,0.00,,,0.00,Weather View 32 v70,2013-03-28 13:35:00,
2013-03-28 09:40:00,40.0,35.2,30.04,South,180,3.0,11.0,83,0.00,,,0.00,Weather View 32 v70,2013-03-28 13:40:00,
2013-03-28 09:45:00,40.0,34.6,30.04,North,360,6.0,11.0,81,0.00,,,0.00,Weather View 32 v70,2013-03-28 13:45:00,
2013-03-28 09:50:00,40.0,34.9,30.04,NNW,337,7.0,11.0,82,0.00,,,0.00,Weather View 32 v70,2013-03-28 13:50:00,
2013-03-28 09:55:00,40.0,35.2,30.04,North,360,7.0,14.0,83,0.00,,,0.00,Weather View 32 v70,2013-03-28 13:55:00,
2013-03-28 10:00:00,40.0,35.6,30.05,West,270,4.0,14.0,84,0.00,,,0.00,Weather View 32 v70,2013-03-28 14:00:00,
2013-03-28 10:05:00,40.0,36.7,30.05,NW,315,1.0,14.0,88,0.00,,,0.00,Weather View 32 v70,2013-03-28 14:05:00,
2013-03-28 10:10:00,40.0,35.2,30.05,North,360,5.0,14.0,83,0.00,,,0.00,Weather View 32 v70,2013-03-28 14:10:00,
2013-03-28 10:15:00,41.0,37.7,30.05,ENE,67,5.0,14.0,88,0.00,,,0.00,Weather View 32 v70,2013-03-28 14:15:00,
2013-03-28 10:20:00,41.0,36.2,30.05,North,360,3.0,14.0,83,0.00,,,0.00,Weather View 32 v70,2013-03-28 14:20:00,
2013-03-28 10:25:00,41.0,35.3,30.05,NNE,22,6.0,14.0,80,0.00,,,0.00,Weather View 32 v70,2013-03-28 14:25:00,
2013-03-28 10:30:00,41.0,35.9,30.05,NW,315,3.0,14.0,82,0.00,,,0.00,Weather View 32 v70,2013-03-28 14:30:00,
2013-03-28 10:35:00,41.0,36.2,30.05,NE,45,4.0,14.0,83,0.00,,,0.00,Weather View 32 v70,2013-03-28 14:35:00,
2013-03-28 10:40:00,41.0,35.6,30.05,NW,315,6.0,14.0,81,0.00,,,0.00,Weather View 32 v70,2013-03-28 14:40:00,
2013-03-28 10:45:00,41.0,35.6,30.05,West,270,7.0,14.0,81,0.00,,,0.00,Weather View 32 v70,2013-03-28 14:45:00,
2013-03-28 10:50:00,42.0,35.3,30.04,NNW,337,6.0,14.0,77,0.00,,,0.00,Weather View 32 v70,2013-03-28 14:50:00,
2013-03-28 10:55:00,42.0,35.0,30.05,NNW,337,7.0,14.0,76,0.00,,,0.00,Weather View 32 v70,2013-03-28 14:55:00,
2013-03-28 11:00:00,43.0,36.9,30.05,West,270,3.0,14.0,79,0.00,,,0.00,Weather View 32 v70,2013-03-28 15:00:00,
2013-03-28 11:05:00,43.0,35.6,30.04,WNW,292,1.0,14.0,75,0.00,,,0.00,Weather View 32 v70,2013-03-28 15:05:00,
2013-03-28 11:10:00,43.0,35.3,30.04,NW,315,6.0,14.0,74,0.00,,,0.00,Weather View 32 v70,2013-03-28 15:10:00,
2013-03-28 11:15:00,44.0,36.2,30.03,South,180,1.0,14.0,74,0.00,,,0.00,Weather View 32 v70,2013-03-28 15:15:00,
2013-03-28 11:20:00,44.0,35.5,30.03,WSW,247,3.0,14.0,72,0.00,,,0.00,Weather View 32 v70,2013-03-28 15:20:00,
2013-03-28 11:25:00,44.0,34.5,30.03,West,270,9.0,14.0,69,0.00,,,0.00,Weather View 32 v70,2013-03-28 15:25:00,
2013-03-28 11:30:00,44.0,34.5,30.03,North,360,9.0,13.0,69,0.00,,,0.00,Weather View 32 v70,2013-03-28 15:30:00,
2013-03-28 11:40:00,45.0,34.7,30.03,North,360,5.0,13.0,67,0.00,,,0.00,Weather View 32 v70,2013-03-28 15:40:00,
2013-03-28 11:45:00,45.0,33.9,30.03,NE,45,13.0,15.0,65,0.00,,,0.00,Weather View 32 v70,2013-03-28 15:45:00,
2013-03-28 11:50:00,45.0,33.9,30.03,North,360,7.0,15.0,65,0.00,,,0.00,Weather View 32 v70,2013-03-28 15:50:00,
2013-03-28 11:55:00,45.0,33.5,30.03,North,360,9.0,15.0,64,0.00,,,0.00,Weather View 32 v70,2013-03-28 15:55:00,
2013-03-28 12:00:00,46.0,34.9,30.03,SSW,202,0.0,15.0,65,0.00,,,0.00,Weather View 32 v70,2013-03-28 16:00:00,
2013-03-28 12:05:00,46.0,33.3,30.03,NNE,22,3.0,15.0,61,0.00,,,0.00,Weather View 32 v70,2013-03-28 16:05:00,
2013-03-28 12:10:00,46.0,32.9,30.02,ENE,67,6.0,15.0,60,0.00,,,0.00,Weather View 32 v70,2013-03-28 16:10:00,
2013-03-28 12:15:00,45.0,31.9,30.02,ENE,67,8.0,15.0,60,0.00,,,0.00,Weather View 32 v70,2013-03-28 16:15:00,
2013-03-28 12:20:00,46.0,32.9,30.03,NNE,22,2.0,15.0,60,0.00,,,0.00,Weather View 32 v70,2013-03-28 16:20:00,
2013-03-28 12:25:00,46.0,32.5,30.03,WNW,292,6.0,15.0,59,0.00,,,0.00,Weather View 32 v70,2013-03-28 16:25:00,
2013-03-28 12:30:00,46.0,31.6,30.02,WNW,292,4.0,15.0,57,0.00,,,0.00,Weather View 32 v70,2013-03-28 16:30:00,
2013-03-28 12:35:00,46.0,31.6,30.02,West,270,3.0,15.0,57,0.00,,,0.00,Weather View 32 v70,2013-03-28 16:35:00,
2013-03-28 12:45:00,46.0,31.6,30.02,North,360,5.0,15.0,57,0.00,,,0.00,Weather View 32 v70,2013-03-28 16:45:00,
2013-03-28 12:50:00,46.0,30.7,30.01,North,360,9.0,13.0,55,0.00,,,0.00,Weather View 32 v70,2013-03-28 16:50:00,
2013-03-28 12:55:00,46.0,30.7,30.01,East,90,7.0,13.0,55,0.00,,,0.00,Weather View 32 v70,2013-03-28 16:55:00,
2013-03-28 13:00:00,46.0,31.2,30.02,ESE,112,1.0,13.0,56,0.00,,,0.00,Weather View 32 v70,2013-03-28 17:00:00,
2013-03-28 13:05:00,46.0,32.0,30.02,North,360,7.0,13.0,58,0.00,,,0.00,Weather View 32 v70,2013-03-28 17:05:00,
2013-03-28 13:10:00,47.0,33.4,30.02,West,270,3.0,13.0,59,0.00,,,0.00,Weather View 32 v70,2013-03-28 17:10:00,
2013-03-28 13:15:00,47.0,31.6,30.02,North,360,4.0,13.0,55,0.00,,,0.00,Weather View 32 v70,2013-03-28 17:15:00,
2013-03-28 13:20:00,48.0,33.0,30.01,NNE,22,3.0,13.0,56,0.00,,,0.00,Weather View 32 v70,2013-03-28 17:20:00,
2013-03-28 13:25:00,47.0,31.2,30.01,NW,315,8.0,13.0,54,0.00,,,0.00,Weather View 32 v70,2013-03-28 17:25:00,
2013-03-28 13:30:00,47.0,31.6,30.01,WNW,292,8.0,13.0,55,0.00,,,0.00,Weather View 32 v70,2013-03-28 17:30:00,
2013-03-28 13:35:00,47.0,32.5,30.01,WSW,247,6.0,13.0,57,0.00,,,0.00,Weather View 32 v70,2013-03-28 17:35:00,
2013-03-28 13:40:00,48.0,32.1,30.00,NNE,22,7.0,13.0,54,0.00,,,0.00,Weather View 32 v70,2013-03-28 17:40:00,
2013-03-28 13:45:00,49.0,32.1,30.00,North,360,4.0,13.0,52,0.00,,,0.00,Weather View 32 v70,2013-03-28 17:45:00,
2013-03-28 13:50:00,49.0,31.1,30.00,NW,315,7.0,13.0,50,0.00,,,0.00,Weather View 32 v70,2013-03-28 17:50:00,
2013-03-28 13:55:00,48.0,30.2,30.00,NNW,337,7.0,13.0,50,0.00,,,0.00,Weather View 32 v70,2013-03-28 17:55:00,
2013-03-28 14:00:00,49.0,32.1,30.00,NW,315,3.0,13.0,52,0.00,,,0.00,Weather View 32 v70,2013-03-28 18:00:00,
2013-03-28 14:05:00,48.0,30.2,30.00,NW,315,5.0,13.0,50,0.00,,,0.00,Weather View 32 v70,2013-03-28 18:05:00,
2013-03-28 14:10:00,48.0,30.2,30.00,NE,45,6.0,15.0,50,0.00,,,0.00,Weather View 32 v70,2013-03-28 18:10:00,
2013-03-28 14:15:00,49.0,31.1,30.00,NE,45,9.0,15.0,50,0.00,,,0.00,Weather View 32 v70,2013-03-28 18:15:00,
2013-03-28 14:20:00,49.0,31.1,29.99,NW,315,7.0,15.0,50,0.00,,,0.00,Weather View 32 v70,2013-03-28 18:20:00,
2013-03-28 14:25:00,49.0,30.6,29.99,North,360,8.0,15.0,49,0.00,,,0.00,Weather View 32 v70,2013-03-28 18:25:00,
2013-03-28 14:30:00,49.0,30.1,29.99,NNW,337,0.0,15.0,48,0.00,,,0.00,Weather View 32 v70,2013-03-28 18:30:00,
2013-03-28 14:35:00,49.0,29.6,29.99,SSE,157,1.0,15.0,47,0.00,,,0.00,Weather View 32 v70,2013-03-28 18:35:00,
2013-03-28 14:40:00,49.0,30.1,29.99,NNW,337,12.0,15.0,48,0.00,,,0.00,Weather View 32 v70,2013-03-28 18:40:00,
2013-03-28 14:45:00,49.0,30.6,29.99,WNW,292,6.0,15.0,49,0.00,,,0.00,Weather View 32 v70,2013-03-28 18:45:00,
2013-03-28 14:50:00,49.0,31.1,29.99,West,270,9.0,15.0,50,0.00,,,0.00,Weather View 32 v70,2013-03-28 18:50:00,
2013-03-28 14:55:00,48.0,30.7,29.99,NW,315,6.0,15.0,51,0.00,,,0.00,Weather View 32 v70,2013-03-28 18:55:00,
2013-03-28 15:00:00,48.0,30.7,30.00,North,360,6.0,15.0,51,0.00,,,0.00,Weather View 32 v70,2013-03-28 19:00:00,
2013-03-28 15:05:00,48.0,30.2,30.00,North,360,8.0,15.0,50,0.00,,,0.00,Weather View 32 v70,2013-03-28 19:05:00,
2013-03-28 15:10:00,48.0,30.2,30.00,NW,315,5.0,15.0,50,0.00,,,0.00,Weather View 32 v70,2013-03-28 19:10:00,
2013-03-28 15:15:00,48.0,30.7,30.00,NW,315,4.0,15.0,51,0.00,,,0.00,Weather View 32 v70,2013-03-28 19:15:00,
2013-03-28 15:20:00,48.0,30.2,30.00,NW,315,3.0,15.0,50,0.00,,,0.00,Weather View 32 v70,2013-03-28 19:20:00,
2013-03-28 15:25:00,48.0,30.7,30.00,NW,315,7.0,15.0,51,0.00,,,0.00,Weather View 32 v70,2013-03-28 19:25:00,
2013-03-28 15:30:00,48.0,29.7,30.00,North,360,5.0,15.0,49,0.00,,,0.00,Weather View 32 v70,2013-03-28 19:30:00,
2013-03-28 15:35:00,48.0,30.2,30.00,NW,315,9.0,15.0,50,0.00,,,0.00,Weather View 32 v70,2013-03-28 19:35:00,
2013-03-28 15:40:00,48.0,30.2,30.00,WNW,292,6.0,15.0,50,0.00,,,0.00,Weather View 32 v70,2013-03-28 19:40:00,
2013-03-28 15:45:00,48.0,30.2,30.00,NW,315,5.0,15.0,50,0.00,,,0.00,Weather View 32 v70,2013-03-28 19:45:00,
2013-03-28 15:50:00,48.0,29.7,29.99,NNW,337,6.0,15.0,49,0.00,,,0.00,Weather View 32 v70,2013-03-28 19:50:00,
2013-03-28 15:55:00,48.0,29.2,29.99,NW,315,5.0,15.0,48,0.00,,,0.00,Weather View 32 v70,2013-03-28 19:55:00,
2013-03-28 16:00:00,48.0,29.7,29.99,WNW,292,6.0,15.0,49,0.00,,,0.00,Weather View 32 v70,2013-03-28 20:00:00,
2013-03-28 16:05:00,48.0,30.2,29.99,North,360,5.0,15.0,50,0.00,,,0.00,Weather View 32 v70,2013-03-28 20:05:00,
2013-03-28 16:10:00,48.0,30.2,29.99,North,360,6.0,16.0,50,0.00,,,0.00,Weather View 32 v70,2013-03-28 20:10:00,
2013-03-28 16:15:00,48.0,30.2,29.99,North,360,8.0,16.0,50,0.00,,,0.00,Weather View 32 v70,2013-03-28 20:15:00,
2013-03-28 16:20:00,49.0,30.6,29.99,NW,315,6.0,16.0,49,0.00,,,0.00,Weather View 32 v70,2013-03-28 20:20:00,
2013-03-28 16:25:00,49.0,29.6,29.99,NW,315,4.0,16.0,47,0.00,,,0.00,Weather View 32 v70,2013-03-28 20:25:00,
2013-03-28 16:30:00,49.0,30.1,29.99,WNW,292,5.0,16.0,48,0.00,,,0.00,Weather View 32 v70,2013-03-28 20:30:00,
2013-03-28 16:35:00,49.0,29.6,29.99,NNW,337,7.0,16.0,47,0.00,,,0.00,Weather View 32 v70,2013-03-28 20:35:00,
2013-03-28 16:40:00,50.0,31.0,29.99,North,360,6.0,16.0,48,0.00,,,0.00,Weather View 32 v70,2013-03-28 20:40:00,
2013-03-28 16:45:00,50.0,30.0,29.99,NW,315,6.0,16.0,46,0.00,,,0.00,Weather View 32 v70,2013-03-28 20:45:00,
2013-03-28 16:50:00,51.0,31.4,29.99,NW,315,9.0,16.0,47,0.00,,,0.00,Weather View 32 v70,2013-03-28 20:50:00,
2013-03-28 16:55:00,51.0,30.4,29.99,NW,315,8.0,16.0,45,0.00,,,0.00,Weather View 32 v70,2013-03-28 20:55:00,
2013-03-28 17:00:00,50.0,29.5,29.98,NW,315,3.0,16.0,45,0.00,,,0.00,Weather View 32 v70,2013-03-28 21:00:00,
2013-03-28 17:05:00,51.0,29.8,29.99,West,270,8.0,16.0,44,0.00,,,0.00,Weather View 32 v70,2013-03-28 21:05:00,
2013-03-28 17:10:00,50.0,29.5,29.99,NW,315,7.0,16.0,45,0.00,,,0.00,Weather View 32 v70,2013-03-28 21:10:00,
2013-03-28 17:15:00,51.0,30.4,29.99,West,270,12.0,16.0,45,0.00,,,0.00,Weather View 32 v70,2013-03-28 21:15:00,
2013-03-28 17:20:00,51.0,30.4,29.99,West,270,2.0,16.0,45,0.00,,,0.00,Weather View 32 v70,2013-03-28 21:20:00,
2013-03-28 17:25:00,50.0,29.5,29.99,WNW,292,6.0,16.0,45,0.00,,,0.00,Weather View 32 v70,2013-03-28 21:25:00,
2013-03-28 17:30:00,50.0,30.5,29.99,WNW,292,3.0,15.0,47,0.00,,,0.00,Weather View 32 v70,2013-03-28 21:30:00,
2013-03-28 17:35:00,50.0,30.5,29.99,NNE,22,4.0,15.0,47,0.00,,,0.00,Weather View 32 v70,2013-03-28 21:35:00,
2013-03-28 17:40:00,49.0,30.1,29.99,WSW,247,4.0,15.0,48,0.00,,,0.00,Weather View 32 v70,2013-03-28 21:40:00,
2013-03-28 17:45:00,49.0,30.1,30.01,West,270,5.0,15.0,48,0.00,,,0.00,Weather View 32 v70,2013-03-28 21:45:00,
2013-03-28 17:50:00,49.0,31.1,30.01,NNW,337,5.0,15.0,50,0.00,,,0.00,Weather View 32 v70,2013-03-28 21:50:00,
2013-03-28 17:55:00,49.0,31.1,30.01,NW,315,7.0,15.0,50,0.00,,,0.00,Weather View 32 v70,2013-03-28 21:55:00,
2013-03-28 18:00:00,48.0,31.2,30.01,West,270,1.0,15.0,52,0.00,,,0.00,Weather View 32 v70,2013-03-28 22:00:00,
2013-03-28 18:05:00,48.0,30.2,30.02,NNW,337,7.0,15.0,50,0.00,,,0.00,Weather View 32 v70,2013-03-28 22:05:00,
2013-03-28 18:10:00,48.0,30.7,30.02,NW,315,7.0,15.0,51,0.00,,,0.00,Weather View 32 v70,2013-03-28 22:10:00,
2013-03-28 18:15:00,48.0,30.7,30.02,NNW,337,6.0,15.0,51,0.00,,,0.00,Weather View 32 v70,2013-03-28 22:15:00,
2013-03-28 18:20:00,47.0,30.3,30.02,NNW,337,9.0,14.0,52,0.00,,,0.00,Weather View 32 v70,2013-03-28 22:20:00,
2013-03-28 18:25:00,48.0,31.2,30.03,NW,315,7.0,14.0,52,0.00,,,0.00,Weather View 32 v70,2013-03-28 22:25:00,
2013-03-28 18:30:00,47.0,30.3,30.03,NW,315,3.0,14.0,52,0.00,,,0.00,Weather View 32 v70,2013-03-28 22:30:00,
2013-03-28 18:35:00,47.0,30.3,30.03,WNW,292,6.0,14.0,52,0.00,,,0.00,Weather View 32 v70,2013-03-28 22:35:00,
2013-03-28 18:40:00,47.0,30.7,30.03,NW,315,5.0,14.0,53,0.00,,,0.00,Weather View 32 v70,2013-03-28 22:40:00,
2013-03-28 18:45:00,47.0,30.7,30.04,NW,315,5.0,14.0,53,0.00,,,0.00,Weather View 32 v70,2013-03-28 22:45:00,
2013-03-28 18:50:00,47.0,30.7,30.04,NW,315,7.0,14.0,53,0.00,,,0.00,Weather View 32 v70,2013-03-28 22:50:00,
2013-03-28 18:56:00,47.0,30.7,30.04,WNW,292,6.0,14.0,53,0.00,,,0.00,Weather View 32 v70,2013-03-28 22:56:00,
2013-03-28 19:01:00,47.0,31.2,30.04,NW,315,6.0,14.0,54,0.00,,,0.00,Weather View 32 v70,2013-03-28 23:01:00,
2013-03-28 19:06:00,47.0,31.2,30.04,NNW,337,4.0,13.0,54,0.00,,,0.00,Weather View 32 v70,2013-03-28 23:06:00,
2013-03-28 19:11:00,46.0,30.7,30.04,NE,45,4.0,13.0,55,0.00,,,0.00,Weather View 32 v70,2013-03-28 23:11:00,
2013-03-28 19:16:00,47.0,31.2,30.05,WNW,292,6.0,13.0,54,0.00,,,0.00,Weather View 32 v70,2013-03-28 23:16:00,
2013-03-28 19:21:00,46.0,30.7,30.05,NW,315,7.0,13.0,55,0.00,,,0.00,Weather View 32 v70,2013-03-28 23:21:00,
2013-03-28 19:26:00,46.0,30.3,30.06,NW,315,6.0,13.0,54,0.00,,,0.00,Weather View 32 v70,2013-03-28 23:26:00,
2013-03-28 19:31:00,46.0,30.7,30.06,NW,315,5.0,13.0,55,0.00,,,0.00,Weather View 32 v70,2013-03-28 23:31:00,
2013-03-28 19:36:00,46.0,30.7,30.06,NNW,337,3.0,13.0,55,0.00,,,0.00,Weather View 32 v70,2013-03-28 23:36:00,
2013-03-28 19:41:00,46.0,31.2,30.06,NW,315,3.0,13.0,56,0.00,,,0.00,Weather View 32 v70,2013-03-28 23:41:00,
2013-03-28 19:46:00,46.0,30.7,30.07,WNW,292,6.0,13.0,55,0.00,,,0.00,Weather View 32 v70,2013-03-28 23:46:00,
2013-03-28 19:51:00,46.0,31.2,30.07,WSW,247,2.0,13.0,56,0.00,,,0.00,Weather View 32 v70,2013-03-28 23:51:00,
2013-03-28 19:56:00,46.0,31.2,30.07,NW,315,3.0,13.0,56,0.00,,,0.00,Weather View 32 v70,2013-03-28 23:56:00,
2013-03-28 20:01:00,46.0,31.6,30.07,NNW,337,6.0,13.0,57,0.00,,,0.00,Weather View 32 v70,2013-03-29 00:01:00,
2013-03-28 20:06:00,46.0,32.0,30.07,NW,315,10.0,13.0,58,0.00,,,0.00,Weather View 32 v70,2013-03-29 00:06:00,
2013-03-28 20:11:00,46.0,32.9,30.07,WNW,292,4.0,13.0,60,0.00,,,0.00,Weather View 32 v70,2013-03-29 00:11:00,
2013-03-28 20:16:00,46.0,32.9,30.08,WNW,292,8.0,13.0,60,0.00,,,0.00,Weather View 32 v70,2013-03-29 00:16:00,
2013-03-28 20:21:00,46.0,33.3,30.08,NNW,337,5.0,13.0,61,0.00,,,0.00,Weather View 32 v70,2013-03-29 00:21:00,
2013-03-28 20:26:00,46.0,33.3,30.08,NW,315,1.0,13.0,61,0.00,,,0.00,Weather View 32 v70,2013-03-29 00:26:00,
2013-03-28 20:31:00,45.0,32.7,30.08,NNW,337,6.0,13.0,62,0.00,,,0.00,Weather View 32 v70,2013-03-29 00:31:00,
2013-03-28 20:36:00,46.0,33.7,30.08,NW,315,4.0,13.0,62,0.00,,,0.00,Weather View 32 v70,2013-03-29 00:36:00,
2013-03-28 20:41:00,45.0,33.1,30.08,NNW,337,5.0,10.0,63,0.00,,,0.00,Weather View 32 v70,2013-03-29 00:41:00,
2013-03-28 20:46:00,45.0,32.7,30.09,WNW,292,6.0,10.0,62,0.00,,,0.00,Weather View 32 v70,2013-03-29 00:46:00,
2013-03-28 20:51:00,45.0,33.1,30.09,NW,315,7.0,10.0,63,0.00,,,0.00,Weather View 32 v70,2013-03-29 00:51:00,
2013-03-28 20:56:00,45.0,33.1,30.09,NW,315,6.0,10.0,63,0.00,,,0.00,Weather View 32 v70,2013-03-29 00:56:00,
2013-03-28 21:02:00,45.0,33.5,30.09,North,360,5.0,10.0,64,0.00,,,0.00,Weather View 32 v70,2013-03-29 01:02:00,
2013-03-28 21:07:00,45.0,33.5,30.09,WNW,292,5.0,10.0,64,0.00,,,0.00,Weather View 32 v70,2013-03-29 01:07:00,
2013-03-28 21:12:00,45.0,33.5,30.09,NW,315,3.0,10.0,64,0.00,,,0.00,Weather View 32 v70,2013-03-29 01:12:00,
2013-03-28 21:17:00,45.0,33.9,30.10,NW,315,3.0,11.0,65,0.00,,,0.00,Weather View 32 v70,2013-03-29 01:17:00,
2013-03-28 21:22:00,45.0,33.9,30.10,North,360,6.0,11.0,65,0.00,,,0.00,Weather View 32 v70,2013-03-29 01:22:00,
2013-03-28 21:27:00,45.0,33.9,30.10,North,360,6.0,11.0,65,0.00,,,0.00,Weather View 32 v70,2013-03-29 01:27:00,
2013-03-28 21:32:00,45.0,33.9,30.10,WNW,292,3.0,11.0,65,0.00,,,0.00,Weather View 32 v70,2013-03-29 01:32:00,
2013-03-28 21:37:00,45.0,34.3,30.10,NNW,337,5.0,11.0,66,0.00,,,0.00,Weather View 32 v70,2013-03-29 01:37:00,
2013-03-28 21:42:00,45.0,34.3,30.10,NW,315,4.0,11.0,66,0.00,,,0.00,Weather View 32 v70,2013-03-29 01:42:00,
2013-03-28 21:47:00,45.0,34.3,30.10,NNW,337,6.0,11.0,66,0.00,,,0.00,Weather View 32 v70,2013-03-29 01:47:00,
2013-03-28 21:52:00,45.0,34.3,30.10,NNW,337,4.0,11.0,66,0.00,,,0.00,Weather View 32 v70,2013-03-29 01:52:00,
2013-03-28 21:57:00,45.0,34.3,30.10,North,360,0.0,11.0,66,0.00,,,0.00,Weather View 32 v70,2013-03-29 01:57:00,
2013-03-28 22:02:00,45.0,34.3,30.10,North,360,3.0,11.0,66,0.00,,,0.00,Weather View 32 v70,2013-03-29 02:02:00,
2013-03-28 22:07:00,45.0,34.3,30.10,WNW,292,4.0,11.0,66,0.00,,,0.00,Weather View 32 v70,2013-03-29 02:07:00,
2013-03-28 22:12:00,45.0,34.3,30.10,NW,315,7.0,11.0,66,0.00,,,0.00,Weather View 32 v70,2013-03-29 02:12:00,
2013-03-28 22:17:00,45.0,34.3,30.10,NW,315,6.0,10.0,66,0.00,,,0.00,Weather View 32 v70,2013-03-29 02:17:00,
2013-03-28 22:22:00,45.0,34.3,30.10,NW,315,6.0,9.0,66,0.00,,,0.00,Weather View 32 v70,2013-03-29 02:22:00,
2013-03-28 22:27:00,45.0,34.3,30.10,NW,315,1.0,9.0,66,0.00,,,0.00,Weather View 32 v70,2013-03-29 02:27:00,
2013-03-28 22:32:00,45.0,34.3,30.10,NW,315,6.0,9.0,66,0.00,,,0.00,Weather View 32 v70,2013-03-29 02:32:00,
2013-03-28 22:37:00,45.0,34.3,30.10,West,270,6.0,9.0,66,0.00,,,0.00,Weather View 32 v70,2013-03-29 02:37:00,
2013-03-28 22:42:00,44.0,33.4,30.10,WNW,292,1.0,9.0,66,0.00,,,0.00,Weather View 32 v70,2013-03-29 02:42:00,
2013-03-28 22:47:00,44.0,33.4,30.11,NW,315,3.0,9.0,66,0.00,,,0.00,Weather View 32 v70,2013-03-29 02:47:00,
2013-03-28 22:52:00,44.0,33.4,30.11,NNW,337,4.0,9.0,66,0.00,,,0.00,Weather View 32 v70,2013-03-29 02:52:00,
2013-03-28 22:57:00,44.0,33.4,30.11,WSW,247,12.0,12.0,66,0.00,,,0.00,Weather View 32 v70,2013-03-29 02:57:00,
2013-03-28 23:02:00,44.0,33.4,30.11,WNW,292,4.0,12.0,66,0.00,,,0.00,Weather View 32 v70,2013-03-29 03:02:00,
2013-03-28 23:08:00,44.0,33.4,30.11,WNW,292,3.0,12.0,66,0.00,,,0.00,Weather View 32 v70,2013-03-29 03:08:00,
2013-03-28 23:13:00,44.0,33.4,30.11,WNW,292,4.0,12.0,66,0.00,,,0.00,Weather View 32 v70,2013-03-29 03:13:00,
2013-03-28 23:18:00,44.0,33.0,30.11,NW,315,7.0,12.0,65,0.00,,,0.00,Weather View 32 v70,2013-03-29 03:18:00,
2013-03-28 23:23:00,44.0,33.4,30.11,North,360,5.0,12.0,66,0.00,,,0.00,Weather View 32 v70,2013-03-29 03:23:00,
2013-03-28 23:28:00,44.0,33.0,30.11,NW,315,6.0,12.0,65,0.00,,,0.00,Weather View 32 v70,2013-03-29 03:28:00,
2013-03-28 23:33:00,44.0,33.4,30.11,NW,315,4.0,12.0,66,0.00,,,0.00,Weather View 32 v70,2013-03-29 03:33:00,
2013-03-28 23:38:00,44.0,33.4,30.12,WNW,292,7.0,12.0,66,0.00,,,0.00,Weather View 32 v70,2013-03-29 03:38:00,
2013-03-28 23:43:00,44.0,33.4,30.12,NNW,337,5.0,12.0,66,0.00,,,0.00,Weather View 32 v70,2013-03-29 03:43:00,
2013-03-28 23:48:00,44.0,33.4,30.11,NW,315,6.0,12.0,66,0.00,,,0.00,Weather View 32 v70,2013-03-29 03:48:00,
2013-03-28 23:53:00,44.0,33.4,30.11,NNW,337,7.0,12.0,66,0.00,,,0.00,Weather View 32 v70,2013-03-29 03:53:00,
2013-03-28 23:58:00,44.0,33.4,30.12,NNW,337,6.0,12.0,66,0.00,,,0.00,Weather View 32 v70,2013-03-29 03:58:00,